Bei Facebook empfehlenBei Twitter postenGoogle plusPinterest

Das Wetter im Erzgebirge am 03.01.2015

Wetter und Klima am 03.01.2015 Holzhau im Erzgebirge (630m ü.NN)
Letzte gemessene Temperatur und Uhrzeit der Messung23:45:00 Uhr-0.70 °C
Temperatur (Maximum / Höchstwert) und Uhrzeit der Messung12:45:00 Uhr1.80 °C
Temperatur (Minimum / Tiefstwert) und Uhrzeit der Messung20:00:00-1.10 °C
Errechneter Absolutwert der Temperaturschwankungen zwischen Tmin und Tmax des Tages2.90 K
Errechnete Tagesmitteltemperatur0.07500 °C
Gesamt - Niederschlag des Tages (in flüssiger Form)0.00 Liter / m²
Luftdruck (Maximum / Höchstwert) und Zeitpunkt der Messung03:15:00 Uhr1023.20 hPa
Luftdruck (Minimum / Tiefstwert) und Zeitpunkt der Messung21:30:00 Uhr1010.30 hPa
Errechneter Absolutwert der Luftdruckschwankungen des Tages12.90 hPa
Höchste gemessene Windgeschwindigkeit und Uhrzeit der Messung17:30:00 Uhr13.32 km/h
Errechnete Windhäufigkeit in Relation zu den Messwerten des Tages20.83333 %
Niedrigste Windkühle (Windchill) und Zeitpunkt der Messung17:30:00 Uhr-5.20 °C
Taupunkt (Maximum / Höchstwert) und Uhrzeit der Messung01:15:00 Uhr-1.10 °C
Taupunkt (Minimum / Tiefstwert) und Uhrzeit der Messung15:45:00-2.90 °C
Anzahl der automatisch eingelesenen Messwerte 96

Detaillierte Wetter- und Klima- Messwerte für den 03.01.2015 in Holzhau im Erzgebirge (630m ü.NN)
ZeitTemperaturLuftdruckRel. LuftfeuchteWindWindrichtungWindchillTaupunktNiederschlag l/m²
23:45:00-0.70 °C1011.00 hPa93.00 %-1.80 °C 
23:30:00-0.70 °C1010.80 hPa92.00 %-2.00 °C 
23:15:00-0.70 °C1010.60 hPa92.00 %-2.00 °C 
23:00:00-0.70 °C1010.60 hPa92.00 %-2.00 °C 
22:45:00-0.60 °C1010.60 hPa92.00 %-1.90 °C 
22:30:00-0.60 °C1010.60 hPa92.00 %-1.90 °C 
22:15:00-0.60 °C1010.50 hPa92.00 %-1.90 °C 
22:00:00-0.70 °C1010.50 hPa92.00 %-2.00 °C 
21:45:00-0.70 °C1010.40 hPa92.00 %-2.00 °C 
21:30:00-0.70 °C1010.30 hPa92.00 %-2.00 °C 
21:15:00-0.70 °C1010.60 hPa92.00 %-2.00 °C 
21:00:00-0.80 °C1010.40 hPa92.00 %-2.10 °C 
20:45:00-0.90 °C1010.40 hPa92.00 %-2.20 °C 
20:30:00-1.00 °C1010.30 hPa92.00 %-2.30 °C 
20:15:00-1.00 °C1010.30 hPa91.00 %-2.40 °C 
20:00:00-1.10 °C1010.50 hPa91.00 %-2.50 °C 
19:45:00-1.10 °C1010.90 hPa91.00 %-2.50 °C 
19:30:00-1.10 °C1011.00 hPa91.00 %-2.50 °C 
19:15:00-1.10 °C1011.10 hPa91.00 %-2.50 °C 
19:00:00-1.10 °C1011.40 hPa91.00 %-2.50 °C 
18:45:00-1.00 °C1011.50 hPa91.00 %-2.40 °C 
18:30:00-1.00 °C1011.60 hPa91.00 %-2.40 °C 
18:15:00-0.90 °C1011.60 hPa91.00 %-2.30 °C 
18:00:00-0.90 °C1012.10 hPa91.00 %-2.30 °C 
17:45:00-0.90 °C1012.40 hPa91.00 %-2.30 °C 
17:30:00-0.90 °C1012.50 hPa90.00 %13.32 km/hNNW-5.20 °C-2.50 °C 
17:15:00-0.90 °C1012.60 hPa90.00 %-2.50 °C 
17:00:00-0.90 °C1012.70 hPa90.00 %-2.50 °C 
16:45:00-0.90 °C1013.00 hPa89.00 %-2.70 °C 
16:30:00-0.80 °C1013.20 hPa89.00 %-2.60 °C 
16:15:00-0.70 °C1013.50 hPa88.00 %-2.60 °C 
16:00:00-0.70 °C1013.80 hPa87.00 %-2.80 °C 
15:45:00-0.60 °C1014.10 hPa86.00 %-2.90 °C 
15:30:00-0.30 °C1014.40 hPa85.00 %-2.80 °C 
15:15:000.10 °C1014.60 hPa84.00 %5.40 km/hWSW-1.70 °C-2.30 °C 
15:00:000.40 °C1015.10 hPa82.00 %-2.30 °C 
14:45:000.80 °C1015.20 hPa81.00 %-2.10 °C 
14:30:001.00 °C1015.60 hPa80.00 %9.00 km/hN-1.90 °C-2.10 °C 
14:15:001.20 °C1015.80 hPa79.00 %-2.00 °C 
14:00:001.40 °C1016.10 hPa77.00 %-2.20 °C 
13:45:001.40 °C1016.20 hPa75.00 %-2.50 °C 
13:30:001.50 °C1016.50 hPa75.00 %-2.40 °C 
13:15:001.60 °C1017.00 hPa74.00 %-2.50 °C 
13:00:001.60 °C1017.50 hPa73.00 %-2.70 °C 
12:45:001.80 °C1017.80 hPa71.00 %7.56 km/hWSW-0.50 °C-2.90 °C 
12:30:001.80 °C1018.20 hPa72.00 %-2.70 °C 
12:15:001.80 °C1018.40 hPa71.00 %-2.90 °C 
12:00:001.80 °C1018.60 hPa74.00 %-2.30 °C 
11:45:001.60 °C1018.90 hPa74.00 %-2.50 °C 
11:30:001.60 °C1019.50 hPa75.00 %-2.30 °C 
11:15:001.30 °C1019.70 hPa77.00 %-2.30 °C 
11:00:001.00 °C1019.80 hPa78.00 %-2.40 °C 
10:45:000.80 °C1020.30 hPa79.00 %-2.40 °C 
10:30:000.50 °C1020.50 hPa80.00 %-2.50 °C 
10:15:000.40 °C1020.70 hPa82.00 %-2.30 °C 
10:00:000.10 °C1020.80 hPa83.00 %-2.40 °C 
09:45:00-0.10 °C1021.00 hPa84.00 %-2.80 °C 
09:30:00-0.20 °C1021.40 hPa86.00 %-2.50 °C 
09:15:00-0.40 °C1021.40 hPa86.00 %-2.70 °C 
09:00:00-0.40 °C1021.40 hPa87.00 %3.60 km/hW-0.40 °C-2.50 °C 
08:45:00-0.40 °C1021.50 hPa87.00 %-2.50 °C 
08:30:00-0.50 °C1021.60 hPa88.00 %-2.40 °C 
08:15:00-0.70 °C1021.70 hPa88.00 %-2.60 °C 
08:00:00-0.60 °C1022.00 hPa87.00 %3.60 km/hWSW-0.60 °C-2.70 °C 
07:45:00-0.50 °C1021.90 hPa87.00 %-2.60 °C 
07:30:00-0.20 °C1021.90 hPa86.00 %-2.50 °C 
07:15:00-0.10 °C1022.00 hPa86.00 %2.88 km/hW-0.10 °C-2.40 °C 
07:00:00-0.10 °C1022.30 hPa86.00 %-2.40 °C 
06:45:000.10 °C1022.40 hPa86.00 %-2.00 °C 
06:30:000.10 °C1022.30 hPa86.00 %-2.00 °C 
06:15:000.10 °C1022.50 hPa86.00 %-2.00 °C 
06:00:000.20 °C1022.10 hPa86.00 %-1.90 °C 
05:45:000.30 °C1022.20 hPa86.00 %8.28 km/hWNW-2.50 °C-1.80 °C 
05:30:000.30 °C1022.60 hPa86.00 %5.04 km/hNW-1.30 °C-1.80 °C 
05:15:000.30 °C1022.40 hPa85.00 %3.24 km/hWNW0.30 °C-1.90 °C 
05:00:000.30 °C1022.50 hPa86.00 %9.00 km/hW-2.70 °C-1.80 °C 
04:45:000.40 °C1022.40 hPa86.00 %7.92 km/hWSW-2.20 °C-1.70 °C 
04:30:000.40 °C1022.70 hPa86.00 %-1.70 °C 
04:15:000.40 °C1022.80 hPa86.00 %11.16 km/hW-3.10 °C-1.70 °C 
04:00:000.50 °C1022.90 hPa86.00 %5.40 km/hNW-1.20 °C-1.60 °C 
03:45:000.50 °C1022.90 hPa86.00 %9.36 km/hWNW-2.50 °C-1.60 °C 
03:30:000.50 °C1023.10 hPa86.00 %-1.60 °C 
03:15:000.50 °C1023.20 hPa86.00 %3.24 km/hNNW0.50 °C-1.60 °C 
03:00:000.60 °C1022.80 hPa86.00 %-1.50 °C 
02:45:000.50 °C1023.00 hPa87.00 %12.24 km/hNNO-3.20 °C-1.40 °C 
02:30:000.60 °C1023.00 hPa87.00 %5.40 km/hNNW-1.10 °C-1.30 °C 
02:15:000.60 °C1022.90 hPa86.00 %-1.50 °C 
02:00:000.60 °C1022.70 hPa87.00 %-1.30 °C 
01:45:000.70 °C1022.60 hPa87.00 %10.44 km/hNNW-2.60 °C-1.20 °C 
01:30:000.70 °C1022.50 hPa86.00 %-1.40 °C 
01:15:000.80 °C1022.50 hPa87.00 %-1.10 °C 
01:00:000.80 °C1022.70 hPa87.00 %-1.10 °C 
00:45:000.80 °C1022.60 hPa87.00 %-1.10 °C 
00:30:000.80 °C1022.50 hPa87.00 %-1.10 °C 
00:15:000.80 °C1022.60 hPa87.00 %-1.10 °C 
00:00:000.70 °C1022.60 hPa87.00 %7.92 km/hSW-1.90 °C-1.20 °C 

Permanenter Link zu dieser Seite: Wetter im Erzgebirge am 03.01.2015
Performance-Info: Die Erstellung der Seite / Statistik(en) / Tabelle(n) erforderte 5 Datenbankserver-Abfrage(n) und dauerte 101 Millisekunden. (Dieser Messwert ist von der Gesamt-Auslastung des Servers abhängig.)
Erzgebirge - Wetter | Erzgebirge - Wetter (Mobilgeräte) | Komplette Klimadatenbank